Date String (YYYY-MM-DD hh:mm:ss) UTC,Instrument flags,absolute air pressure of the measurement (hPa),sample flow rate (lpm),inlet stack bypass flow (lpm),air temperature of the measurement (°C),ambient temperature measured by the external sensor (°C),aerosol sample conditioner tube jacket temperature (°C),OPC LED temperature (°C),internal box temperature (°C),relative humidity of the measurement (%),span deviation,mass concentration of particles derived from Lorenz-Mie calculation of OPC scattering (μg/m³),mass concentration of particles derived from Lorenz-Mie calculation of OPC scattering (μg/m³),mass concentration of particles derived from Lorenz-Mie calculation of OPC scattering (μg/m³)
DateTimeUTC,F1_M11,P_M11,Q1_M11,Q2_M11,T1_M11,T2_M11,T3_M11,T4_M11,T5_M11,U1_M11,ZSPAN_M11,X0_M11,X2_M11,X1_M11
2023-11-16 12:00:00,SystemResetWarning,0823.4,5.00,000.00,026.1,025.1,000.0,034.5,027.5,8.1,0007.6,0027.07,0010.97,0009.27
2023-11-16 12:01:00,SystemResetWarning,0823.3,5.00,000.00,026.1,025.1,000.0,034.5,027.6,8.2,0007.6,0027.34,0010.80,0009.15
2023-11-16 12:02:00,SystemResetWarning,0823.3,5.00,000.00,026.1,025.1,000.0,034.5,027.6,8.1,0007.6,0027.31,0010.54,0008.92
2023-11-16 12:03:00,SystemResetWarning,0823.3,5.00,000.00,026.1,025.1,000.0,034.5,027.5,8.2,0007.5,0026.10,0010.10,0008.58
2023-11-16 12:04:00,SystemResetWarning,0823.3,5.00,000.00,026.1,025.1,000.0,034.5,027.5,8.0,0007.5,0024.72,0009.76,0008.27
2023-11-16 12:05:00,SystemResetWarning,0823.3,5.00,000.00,026.1,025.2,000.0,034.5,027.5,7.8,0007.4,0023.11,0009.32,0007.90
2023-11-16 12:06:00,SystemResetWarning,0823.2,5.00,000.00,026.1,025.1,000.0,034.5,027.5,7.5,0007.5,0020.70,0008.86,0007.53
2023-11-16 12:07:00,SystemResetWarning,0823.1,5.00,000.00,026.1,025.1,000.0,034.5,027.5,7.6,0007.7,0019.12,0008.43,0007.19
2023-11-16 12:08:00,SystemResetWarning,0823.1,5.00,000.00,026.1,025.1,000.0,034.5,027.5,7.6,0007.6,0018.31,0008.11,0006.91
2023-11-16 12:09:00,SystemResetWarning,0823.1,5.00,000.00,026.1,025.1,000.0,034.5,027.6,7.4,0001.4,0018.22,0007.84,0006.68
2023-11-16 12:10:00,SystemResetWarning,0823.0,5.00,000.00,026.1,025.1,000.0,034.5,027.6,7.4,0000.0,0017.26,0007.43,0006.38
2023-11-16 12:11:00,SystemResetWarning,0823.1,5.00,000.00,026.1,025.2,000.0,034.5,027.5,7.4,0000.0,0014.49,0006.98,0005.99
2023-11-16 12:12:00,SystemResetWarning,0823.1,5.00,000.00,026.1,025.2,000.0,034.5,027.5,7.5,0000.0,0013.49,0006.53,0005.57
2023-11-16 12:13:00,SystemResetWarning,0823.2,5.00,000.00,026.1,025.1,000.0,034.5,027.5,7.0,0000.0,0012.50,0006.21,0005.29
2023-11-16 12:14:00,SystemResetWarning,0823.0,5.00,000.00,026.1,025.1,000.0,034.5,027.5,6.8,0000.0,0012.46,0006.15,0005.19
2023-11-16 12:15:00,SystemResetWarning,0822.9,5.00,000.00,026.1,025.1,000.0,034.5,027.5,6.8,0000.0,0011.77,0005.91,0004.97
2023-11-16 12:16:00,SystemResetWarning,0823.1,5.00,000.00,026.1,025.1,000.0,034.5,027.5,6.8,0000.0,0012.03,0005.74,0004.80
2023-11-16 12:17:00,SystemResetWarning,0823.1,5.00,000.00,026.1,025.1,000.0,034.5,027.5,7.1,0000.0,0011.95,0005.62,0004.68
2023-11-16 12:18:00,SystemResetWarning,0823.0,5.00,000.00,026.1,025.1,000.0,034.5,027.5,6.8,0000.0,0011.79,0005.44,0004.52
2023-11-16 12:19:00,SystemResetWarning,0823.0,5.00,000.00,026.1,025.1,000.0,034.5,027.5,6.7,0000.0,0011.35,0005.08,0004.23
2023-11-16 12:20:00,SystemResetWarning,0823.0,5.00,000.00,026.1,025.1,000.0,034.5,027.5,6.7,0000.0,0009.75,0004.57,0003.85
2023-11-16 12:21:00,SystemResetWarning,0822.9,5.00,000.00,026.1,025.1,000.0,034.5,027.5,6.8,0000.0,0009.12,0004.21,0003.54
2023-11-16 12:22:00,SystemResetWarning,0822.8,5.00,000.00,026.1,025.1,000.0,034.5,027.5,6.9,0000.0,0008.70,0003.93,0003.31
2023-11-16 12:23:00,SystemResetWarning,0823.2,5.00,000.00,026.1,025.1,000.0,034.5,027.5,7.2,0000.0,0008.58,0003.86,0003.24
2023-11-16 12:24:00,SystemResetWarning,0823.0,5.00,000.00,026.1,025.1,000.0,034.5,027.5,7.1,0000.0,0008.62,0003.69,0003.11
2023-11-16 12:25:00,SystemResetWarning,0822.9,5.00,000.00,026.1,025.1,000.0,034.5,027.5,7.1,0000.0,0008.77,0003.47,0002.83
2023-11-16 12:26:00,SystemResetWarning,0822.9,5.00,000.00,026.1,025.1,000.0,034.5,027.5,7.3,0000.0,0008.67,0003.36,0002.72
2023-11-16 12:27:00,SystemResetWarning,0822.9,5.00,000.00,026.1,025.1,000.0,034.5,027.5,7.4,0000.0,0007.99,0003.26,0002.60
2023-11-16 12:28:00,SystemResetWarning,0823.0,5.00,000.00,026.1,025.1,000.0,034.5,027.5,7.4,0000.0,0007.94,0003.19,0002.48
2023-11-16 12:29:00,SystemResetWarning,0823.2,5.00,000.00,026.1,025.1,000.0,034.5,027.5,7.6,0000.0,0008.16,0003.14,0002.35
2023-11-16 12:30:00,SystemResetWarning,0822.8,5.01,000.00,026.1,025.2,000.0,034.5,027.5,7.8,0000.0,0008.11,0003.18,0002.37
2023-11-16 12:31:00,SystemResetWarning,0822.9,5.01,000.00,026.1,025.2,000.0,034.5,027.6,8.1,0000.0,0008.15,0003.24,0002.40
2023-11-16 12:32:00,SystemResetWarning,0823.0,5.01,000.00,026.1,025.1,000.0,034.5,027.6,8.1,0000.0,0008.21,0003.27,0002.44
2023-11-16 12:33:00,SystemResetWarning,0823.0,5.00,000.00,026.1,025.1,000.0,034.5,027.5,7.9,0000.0,0008.22,0003.29,0002.47
2023-11-16 12:34:00,SystemResetWarning,0822.9,5.00,000.00,026.1,025.1,000.0,034.5,027.5,8.2,0000.0,0008.08,0003.24,0002.44
2023-11-16 12:35:00,SystemResetWarning,0823.2,5.00,000.00,026.1,025.2,000.0,034.5,027.5,7.8,0000.0,0007.66,0003.25,0002.47
2023-11-16 12:36:00,SystemResetWarning,0823.1,5.00,000.00,026.1,025.2,000.0,034.5,027.6,8.0,0000.0,0007.52,0003.26,0002.52
2023-11-16 12:37:00,SystemResetWarning,0823.2,4.99,000.00,026.1,025.2,000.0,034.5,027.6,8.2,0000.0,0007.43,0003.26,0002.52
2023-11-16 12:38:00,SystemResetWarning,0823.3,4.99,000.00,026.1,025.2,000.0,034.5,027.6,8.4,0000.0,0007.20,0003.26,0002.53
2023-11-16 12:39:00,SystemResetWarning,0823.1,5.00,000.00,026.1,025.2,000.0,034.5,027.6,8.5,0000.0,0007.00,0003.25,0002.53
2023-11-16 12:40:00,SystemResetWarning,0822.9,5.02,000.00,026.1,025.1,000.0,034.5,027.5,8.5,0000.0,0007.01,0003.19,0002.50
2023-11-16 12:41:00,SystemResetWarning,0822.9,5.00,000.00,026.1,025.1,000.0,034.5,027.5,8.2,0000.0,0007.16,0003.25,0002.53
2023-11-16 12:42:00,SystemResetWarning,0822.7,4.99,000.00,026.1,025.2,000.0,034.5,027.5,7.8,0000.0,0008.08,0003.48,0002.81
2023-11-16 12:43:00,SystemResetWarning,0822.8,4.99,000.00,026.1,025.2,000.0,034.5,027.5,7.4,0000.0,0008.96,0003.80,0003.19
2023-11-16 12:44:00,SystemResetWarning,0822.7,4.99,000.00,026.1,025.1,000.0,034.5,027.6,7.3,0000.0,0009.83,0004.12,0003.49
2023-11-16 12:45:00,SystemResetWarning,0822.7,5.01,000.00,026.1,025.1,000.0,034.5,027.5,7.2,0000.0,0010.70,0004.53,0003.80
2023-11-16 12:46:00,SystemResetWarning,0823.0,5.01,000.00,026.1,025.1,000.0,034.5,027.5,7.2,0000.0,0011.55,0004.90,0004.07
2023-11-16 12:47:00,SystemResetWarning,0822.9,5.01,000.00,026.1,025.1,000.0,034.5,027.5,7.0,0000.0,0012.22,0005.16,0004.25
2023-11-16 12:48:00,SystemResetWarning,0822.8,5.01,000.00,026.1,025.0,000.0,034.5,027.5,6.6,0000.0,0012.51,0005.29,0004.34
2023-11-16 12:49:00,SystemResetWarning,0822.8,5.01,000.00,026.1,025.0,000.0,034.5,027.5,6.6,0000.0,0013.13,0005.37,0004.39
2023-11-16 12:50:00,SystemResetWarning,0822.9,4.99,000.00,026.1,025.0,000.0,034.5,027.5,6.8,0000.0,0013.33,0005.40,0004.41
2023-11-16 12:51:00,SystemResetWarning,0822.9,5.00,000.00,026.1,025.0,000.0,034.5,027.5,6.5,0000.0,0012.93,0005.42,0004.42
2023-11-16 12:52:00,SystemResetWarning,0822.8,4.99,000.00,026.1,025.0,000.0,034.5,027.5,6.5,0000.0,0013.16,0005.38,0004.41
2023-11-16 12:53:00,SystemResetWarning,0822.8,5.01,000.00,026.1,025.0,000.0,034.5,027.5,6.6,0000.0,0013.11,0005.16,0004.30
2023-11-16 12:54:00,SystemResetWarning,0822.9,5.01,000.00,026.1,025.0,000.0,034.5,027.5,6.8,0000.0,0012.33,0004.85,0004.08
2023-11-16 12:55:00,SystemResetWarning,0822.9,4.99,000.00,026.1,025.0,000.0,034.5,027.4,6.9,0000.0,0011.18,0004.47,0003.74
2023-11-16 12:56:00,SystemResetWarning,0822.8,4.99,000.00,026.1,025.0,000.0,034.5,027.5,7.0,0000.0,0010.52,0004.05,0003.40
2023-11-16 12:57:00,SystemResetWarning,0822.8,5.00,000.00,026.1,025.0,000.0,034.5,027.5,7.1,0000.0,0009.64,0003.59,0003.03
2023-11-16 12:58:00,SystemResetWarning,0822.8,5.01,000.00,026.1,025.0,000.0,034.5,027.5,7.3,0000.0,0008.67,0003.26,0002.60
2023-11-16 12:59:00,SystemResetWarning,0822.7,5.01,000.00,026.1,025.1,000.0,034.5,027.5,7.3,0000.0,0008.01,0003.04,0002.34
